Time,TemperatureF,DewpointF,PressureIn,WindDirection,WindDirectionDegrees,WindSpeedMPH,WindSpeedGustMPH,Humidity,HourlyPrecipIn,Conditions,Clouds,dailyrainin,SolarRadiationWatts/m^2,SoftwareType,DateUTC
2013-06-13 00:22:00,68.0,22.0,-100.00,East,94,5.0,12.0,17,0.00,,,0.00,0.000000,,2013-06-13 06:22:00,
2013-06-13 00:33:00,68.0,22.0,-100.00,East,94,5.0,12.0,17,0.00,,,0.00,0.000000,,2013-06-13 06:33:00,
2013-06-13 00:44:00,68.0,22.0,-100.00,East,94,5.0,12.0,17,0.00,,,0.00,0.000000,,2013-06-13 06:44:00,
2013-06-13 00:52:00,68.0,22.0,-100.00,East,94,5.0,12.0,17,0.00,,,0.00,0.000000,,2013-06-13 06:52:00,
2013-06-13 01:22:00,67.0,22.0,-100.00,East,92,5.0,10.0,18,0.00,,,0.00,0.000000,,2013-06-13 07:22:00,
2013-06-13 01:33:00,67.0,22.0,-100.00,East,92,5.0,10.0,18,0.00,,,0.00,0.000000,,2013-06-13 07:33:00,
2013-06-13 01:42:00,67.0,22.0,-100.00,East,92,5.0,10.0,18,0.00,,,0.00,0.000000,,2013-06-13 07:42:00,
2013-06-13 01:52:00,67.0,22.0,-100.00,East,92,5.0,10.0,18,0.00,,,0.00,0.000000,,2013-06-13 07:52:00,
2013-06-13 02:22:00,66.0,23.0,-100.00,East,92,5.0,9.0,19,0.00,,,0.00,0.000000,,2013-06-13 08:22:00,
2013-06-13 02:32:00,66.0,23.0,-100.00,East,92,5.0,9.0,19,0.00,,,0.00,0.000000,,2013-06-13 08:32:00,
2013-06-13 02:43:00,66.0,23.0,-100.00,East,92,5.0,9.0,19,0.00,,,0.00,0.000000,,2013-06-13 08:43:00,
2013-06-13 02:52:00,66.0,23.0,-100.00,East,92,5.0,9.0,19,0.00,,,0.00,0.000000,,2013-06-13 08:52:00,
2013-06-13 03:32:00,64.0,23.0,-100.00,East,96,5.0,11.0,21,0.00,,,0.00,0.000000,,2013-06-13 09:32:00,
2013-06-13 03:42:00,64.0,23.0,-100.00,East,96,5.0,11.0,21,0.00,,,0.00,0.000000,,2013-06-13 09:42:00,
2013-06-13 03:52:00,64.0,23.0,-100.00,East,96,5.0,11.0,21,0.00,,,0.00,0.000000,,2013-06-13 09:52:00,
2013-06-13 04:22:00,64.0,23.0,-100.00,East,91,5.0,9.0,21,0.00,,,0.00,0.000000,,2013-06-13 10:22:00,
2013-06-13 04:33:00,64.0,23.0,-100.00,East,91,5.0,9.0,21,0.00,,,0.00,0.000000,,2013-06-13 10:33:00,
2013-06-13 04:42:00,64.0,23.0,-100.00,East,91,5.0,9.0,21,0.00,,,0.00,0.000000,,2013-06-13 10:42:00,
2013-06-13 04:53:00,64.0,23.0,-100.00,East,91,5.0,9.0,21,0.00,,,0.00,0.000000,,2013-06-13 10:53:00,
2013-06-13 05:32:00,59.0,24.0,-100.00,North,6,4.0,8.0,26,0.00,,,0.00,0.000000,,2013-06-13 11:32:00,
2013-06-13 05:42:00,59.0,24.0,-100.00,North,6,4.0,8.0,26,0.00,,,0.00,0.000000,,2013-06-13 11:42:00,
2013-06-13 05:52:00,59.0,24.0,-100.00,North,6,4.0,8.0,26,0.00,,,0.00,0.000000,,2013-06-13 11:52:00,
2013-06-13 06:34:00,60.0,23.0,-100.00,East,85,2.0,6.0,24,0.00,,,0.00,0.000000,,2013-06-13 12:34:00,
2013-06-13 06:42:00,60.0,23.0,-100.00,East,85,2.0,6.0,24,0.00,,,0.00,0.000000,,2013-06-13 12:42:00,
2013-06-13 06:52:00,60.0,23.0,-100.00,East,85,2.0,6.0,24,0.00,,,0.00,0.000000,,2013-06-13 12:52:00,
2013-06-13 07:21:00,61.0,24.0,-100.00,ESE,102,7.0,10.0,24,0.00,,,0.00,54.000000,,2013-06-13 13:21:00,
2013-06-13 07:32:00,61.0,24.0,-100.00,ESE,102,7.0,10.0,24,0.00,,,0.00,54.000000,,2013-06-13 13:32:00,
2013-06-13 07:43:00,61.0,24.0,-100.00,ESE,102,7.0,10.0,24,0.00,,,0.00,54.000000,,2013-06-13 13:43:00,
2013-06-13 07:53:00,61.0,24.0,-100.00,ESE,102,7.0,10.0,24,0.00,,,0.00,54.000000,,2013-06-13 13:53:00,
2013-06-13 08:22:00,70.0,27.0,-100.00,ESE,109,2.0,10.0,20,0.00,,,0.00,213.000000,,2013-06-13 14:22:00,
2013-06-13 08:33:00,70.0,27.0,-100.00,ESE,109,2.0,10.0,20,0.00,,,0.00,213.000000,,2013-06-13 14:33:00,
2013-06-13 08:43:00,70.0,27.0,-100.00,ESE,109,2.0,10.0,20,0.00,,,0.00,213.000000,,2013-06-13 14:43:00,
2013-06-13 08:53:00,70.0,27.0,-100.00,ESE,109,2.0,10.0,20,0.00,,,0.00,213.000000,,2013-06-13 14:53:00,
2013-06-13 09:22:00,79.0,26.0,-100.00,East,88,1.0,5.0,14,0.00,,,0.00,534.000000,,2013-06-13 15:22:00,
2013-06-13 09:33:00,79.0,26.0,-100.00,East,88,1.0,5.0,14,0.00,,,0.00,534.000000,,2013-06-13 15:33:00,
2013-06-13 09:43:00,79.0,26.0,-100.00,East,88,1.0,5.0,14,0.00,,,0.00,534.000000,,2013-06-13 15:43:00,
2013-06-13 09:53:00,79.0,26.0,-100.00,East,88,1.0,5.0,14,0.00,,,0.00,534.000000,,2013-06-13 15:53:00,
2013-06-13 10:22:00,90.0,21.0,-100.00,SW,219,5.0,11.0,8,0.00,,,0.00,911.000000,,2013-06-13 16:22:00,
2013-06-13 10:33:00,90.0,21.0,-100.00,SW,219,5.0,11.0,8,0.00,,,0.00,911.000000,,2013-06-13 16:33:00,
2013-06-13 10:43:00,90.0,21.0,-100.00,SW,219,5.0,11.0,8,0.00,,,0.00,911.000000,,2013-06-13 16:43:00,
2013-06-13 10:53:00,90.0,21.0,-100.00,SW,219,5.0,11.0,8,0.00,,,0.00,911.000000,,2013-06-13 16:53:00,
2013-06-13 11:24:00,90.0,18.0,-100.00,SW,217,13.0,24.0,7,0.00,,,0.00,1004.000000,,2013-06-13 17:24:00,
2013-06-13 11:33:00,90.0,18.0,-100.00,SW,217,13.0,24.0,7,0.00,,,0.00,1004.000000,,2013-06-13 17:33:00,
2013-06-13 11:43:00,90.0,18.0,-100.00,SW,217,13.0,24.0,7,0.00,,,0.00,1004.000000,,2013-06-13 17:43:00,
2013-06-13 11:53:00,90.0,18.0,-100.00,SW,217,13.0,24.0,7,0.00,,,0.00,1004.000000,,2013-06-13 17:53:00,
2013-06-13 12:22:00,91.0,15.0,-100.00,SSW,212,13.0,29.0,6,0.00,,,0.00,873.000000,,2013-06-13 18:22:00,
2013-06-13 12:33:00,91.0,15.0,-100.00,SSW,212,13.0,29.0,6,0.00,,,0.00,873.000000,,2013-06-13 18:33:00,
2013-06-13 12:43:00,91.0,15.0,-100.00,SSW,212,13.0,29.0,6,0.00,,,0.00,873.000000,,2013-06-13 18:43:00,
2013-06-13 12:52:00,91.0,15.0,-100.00,SSW,212,13.0,29.0,6,0.00,,,0.00,873.000000,,2013-06-13 18:52:00,
2013-06-13 13:22:00,91.0,15.0,-100.00,SW,228,14.0,31.0,6,0.00,,,0.00,710.000000,,2013-06-13 19:22:00,
2013-06-13 13:33:00,91.0,15.0,-100.00,SW,228,14.0,31.0,6,0.00,,,0.00,710.000000,,2013-06-13 19:33:00,
2013-06-13 13:43:00,91.0,15.0,-100.00,SW,228,14.0,31.0,6,0.00,,,0.00,710.000000,,2013-06-13 19:43:00,
2013-06-13 13:53:00,91.0,15.0,-100.00,SW,228,14.0,31.0,6,0.00,,,0.00,710.000000,,2013-06-13 19:53:00,
2013-06-13 14:22:00,87.0,16.0,-100.00,WSW,241,16.0,29.0,7,0.00,,,0.00,620.000000,,2013-06-13 20:22:00,
2013-06-13 14:33:00,87.0,16.0,-100.00,WSW,241,16.0,29.0,7,0.00,,,0.00,620.000000,,2013-06-13 20:33:00,
2013-06-13 14:44:00,87.0,16.0,-100.00,WSW,241,16.0,29.0,7,0.00,,,0.00,620.000000,,2013-06-13 20:44:00,
2013-06-13 14:53:00,87.0,16.0,-100.00,WSW,241,16.0,29.0,7,0.00,,,0.00,620.000000,,2013-06-13 20:53:00,
2013-06-13 15:22:00,88.0,16.0,-100.00,SW,230,14.0,34.0,7,0.00,,,0.00,503.000000,,2013-06-13 21:22:00,
2013-06-13 15:34:00,88.0,16.0,-100.00,SW,230,14.0,34.0,7,0.00,,,0.00,503.000000,,2013-06-13 21:34:00,
2013-06-13 15:43:00,88.0,16.0,-100.00,SW,230,14.0,34.0,7,0.00,,,0.00,503.000000,,2013-06-13 21:43:00,
2013-06-13 15:52:00,88.0,16.0,-100.00,SW,230,14.0,34.0,7,0.00,,,0.00,503.000000,,2013-06-13 21:52:00,
2013-06-13 16:22:00,91.0,18.0,-100.00,SW,224,19.0,31.0,7,0.00,,,0.00,898.000000,,2013-06-13 22:22:00,
2013-06-13 16:32:00,91.0,18.0,-100.00,SW,224,19.0,31.0,7,0.00,,,0.00,898.000000,,2013-06-13 22:32:00,
2013-06-13 16:43:00,91.0,18.0,-100.00,SW,224,19.0,31.0,7,0.00,,,0.00,898.000000,,2013-06-13 22:43:00,
2013-06-13 16:52:00,91.0,18.0,-100.00,SW,224,19.0,31.0,7,0.00,,,0.00,898.000000,,2013-06-13 22:52:00,
2013-06-13 17:22:00,91.0,18.0,-100.00,SW,229,15.0,33.0,7,0.00,,,0.00,746.000000,,2013-06-13 23:22:00,
2013-06-13 17:32:00,91.0,18.0,-100.00,SW,229,15.0,33.0,7,0.00,,,0.00,746.000000,,2013-06-13 23:32:00,
2013-06-13 17:43:00,91.0,18.0,-100.00,SW,229,15.0,33.0,7,0.00,,,0.00,746.000000,,2013-06-13 23:43:00,
2013-06-13 17:52:00,91.0,18.0,-100.00,SW,229,15.0,33.0,7,0.00,,,0.00,746.000000,,2013-06-13 23:52:00,
2013-06-13 18:22:00,92.0,19.0,-100.00,SW,228,15.0,35.0,7,0.00,,,0.00,545.000000,,2013-06-14 00:22:00,
2013-06-13 18:34:00,92.0,19.0,-100.00,SW,228,15.0,35.0,7,0.00,,,0.00,545.000000,,2013-06-14 00:34:00,
2013-06-13 18:43:00,92.0,19.0,-100.00,SW,228,15.0,35.0,7,0.00,,,0.00,545.000000,,2013-06-14 00:43:00,
2013-06-13 18:53:00,92.0,19.0,-100.00,SW,228,15.0,35.0,7,0.00,,,0.00,545.000000,,2013-06-14 00:53:00,
2013-06-13 19:22:00,86.0,21.0,-100.00,SW,228,15.0,28.0,9,0.00,,,0.00,128.000000,,2013-06-14 01:22:00,
2013-06-13 19:32:00,86.0,21.0,-100.00,SW,228,15.0,28.0,9,0.00,,,0.00,128.000000,,2013-06-14 01:32:00,
2013-06-13 19:43:00,86.0,21.0,-100.00,SW,228,15.0,28.0,9,0.00,,,0.00,128.000000,,2013-06-14 01:43:00,
2013-06-13 19:52:00,86.0,21.0,-100.00,SW,228,15.0,28.0,9,0.00,,,0.00,128.000000,,2013-06-14 01:52:00,
2013-06-13 20:22:00,86.0,25.0,-100.00,WSW,244,11.0,28.0,11,0.00,,,0.00,142.000000,,2013-06-14 02:22:00,
2013-06-13 20:32:00,86.0,25.0,-100.00,WSW,244,11.0,28.0,11,0.00,,,0.00,142.000000,,2013-06-14 02:32:00,
2013-06-13 20:43:00,86.0,25.0,-100.00,WSW,244,11.0,28.0,11,0.00,,,0.00,142.000000,,2013-06-14 02:43:00,
2013-06-13 20:52:00,86.0,25.0,-100.00,WSW,244,11.0,28.0,11,0.00,,,0.00,142.000000,,2013-06-14 02:52:00,
2013-06-13 21:22:00,83.0,23.0,-100.00,SW,222,10.0,22.0,11,0.00,,,0.00,43.000000,,2013-06-14 03:22:00,
2013-06-13 21:34:00,83.0,23.0,-100.00,SW,222,10.0,22.0,11,0.00,,,0.00,43.000000,,2013-06-14 03:34:00,
2013-06-13 21:43:00,83.0,23.0,-100.00,SW,222,10.0,22.0,11,0.00,,,0.00,43.000000,,2013-06-14 03:43:00,
2013-06-13 21:52:00,83.0,23.0,-100.00,SW,222,10.0,22.0,11,0.00,,,0.00,43.000000,,2013-06-14 03:52:00,
2013-06-13 22:22:00,80.0,27.0,-100.00,South,189,12.0,23.0,14,0.00,,,0.00,0.000000,,2013-06-14 04:22:00,
2013-06-13 22:33:00,80.0,27.0,-100.00,South,189,12.0,23.0,14,0.00,,,0.00,0.000000,,2013-06-14 04:33:00,
2013-06-13 22:43:00,80.0,27.0,-100.00,South,189,12.0,23.0,14,0.00,,,0.00,0.000000,,2013-06-14 04:43:00,
2013-06-13 22:53:00,80.0,27.0,-100.00,South,189,12.0,23.0,14,0.00,,,0.00,0.000000,,2013-06-14 04:53:00,
2013-06-13 23:22:00,79.0,27.0,-100.00,SSW,204,8.0,17.0,15,0.00,,,0.00,0.000000,,2013-06-14 05:22:00,
2013-06-13 23:34:00,79.0,27.0,-100.00,SSW,204,8.0,17.0,15,0.00,,,0.00,0.000000,,2013-06-14 05:34:00,
2013-06-13 23:43:00,79.0,27.0,-100.00,SSW,204,8.0,17.0,15,0.00,,,0.00,0.000000,,2013-06-14 05:43:00,
2013-06-13 23:52:00,79.0,27.0,-100.00,SSW,204,8.0,17.0,15,0.00,,,0.00,0.000000,,2013-06-14 05:52:00,